TimeEDT,TemperatureF,Dew PointF,Humidity,Sea Level PressureIn,VisibilityMPH,Wind Direction,Wind SpeedMPH,Gust SpeedMPH,PrecipitationIn,Events,Conditions,WindDirDegrees,DateUTC
12:53 AM,45.0,41.0,86,29.80,10.0,Calm,Calm,-,0.01,Rain,Light Rain,0,2013-03-16 04:53:00
1:53 AM,45.0,41.0,86,29.77,6.0,ENE,6.9,-,0.10,Rain-Thunderstorm,Light Rain,60,2013-03-16 05:53:00
2:12 AM,44.6,42.8,93,29.75,2.0,Variable,3.5,-,0.12,Rain-Thunderstorm,Thunderstorms and Rain,0,2013-03-16 06:12:00
2:21 AM,44.6,42.8,93,29.75,8.0,Calm,Calm,-,0.12,Rain-Thunderstorm,Light Thunderstorms and Rain,0,2013-03-16 06:21:00
2:53 AM,44.1,43.0,96,29.73,6.0,East,4.6,-,0.12,,Overcast,100,2013-03-16 06:53:00
3:53 AM,44.1,42.1,93,29.69,7.0,SE,5.8,-,N/A,,Clear,130,2013-03-16 07:53:00
4:53 AM,44.1,42.1,93,29.67,9.0,Calm,Calm,-,N/A,,Clear,0,2013-03-16 08:53:00
5:53 AM,45.0,42.1,90,29.66,7.0,Calm,Calm,-,N/A,,Clear,0,2013-03-16 09:53:00
6:53 AM,44.1,42.1,93,29.66,8.0,Calm,Calm,-,N/A,,Scattered Clouds,0,2013-03-16 10:53:00
7:48 AM,44.6,42.8,93,29.68,2.5,Calm,Calm,-,0.03,Rain,Light Rain,0,2013-03-16 11:48:00
7:53 AM,45.0,43.0,93,29.68,4.0,Calm,Calm,-,0.04,Rain,Light Rain,0,2013-03-16 11:53:00
8:08 AM,44.6,42.8,93,29.62,2.0,SE,6.9,-,0.03,Rain,Light Rain,130,2013-03-16 12:08:00
8:18 AM,44.6,44.6,100,29.63,4.0,Variable,3.5,-,0.03,,Mostly Cloudy,0,2013-03-16 12:18:00
8:53 AM,46.0,45.0,96,29.65,3.0,Calm,Calm,-,0.03,,Scattered Clouds,0,2013-03-16 12:53:00
9:53 AM,50.0,48.9,96,29.66,7.0,WNW,4.6,-,0.00,,Clear,300,2013-03-16 13:53:00
10:53 AM,54.0,48.0,80,29.67,10.0,Variable,4.6,-,N/A,,Clear,0,2013-03-16 14:53:00
11:53 AM,57.9,50.0,75,29.70,10.0,WNW,13.8,19.6,N/A,,Mostly Cloudy,300,2013-03-16 15:53:00
12:03 PM,59.0,48.2,67,29.70,9.0,West,12.7,20.7,N/A,,Scattered Clouds,280,2013-03-16 16:03:00
12:53 PM,57.9,46.9,67,29.74,9.0,NW,17.3,-,N/A,,Partly Cloudy,320,2013-03-16 16:53:00
1:53 PM,57.0,45.0,64,29.78,8.0,NW,16.1,21.9,N/A,,Mostly Cloudy,310,2013-03-16 17:53:00
2:35 PM,55.4,44.6,67,29.81,6.0,NW,17.3,-,N/A,,Haze,310,2013-03-16 18:35:00
2:53 PM,55.9,44.1,64,29.83,7.0,NW,12.7,20.7,N/A,,Mostly Cloudy,320,2013-03-16 18:53:00
3:53 PM,51.1,42.1,71,29.85,6.0,NNW,11.5,-,N/A,,Haze,340,2013-03-16 19:53:00
4:53 PM,48.0,39.9,74,29.89,6.0,NNW,11.5,-,N/A,,Haze,330,2013-03-16 20:53:00
5:53 PM,45.0,37.9,76,29.92,6.0,North,12.7,-,N/A,,Haze,350,2013-03-16 21:53:00
6:53 PM,42.1,36.0,79,29.96,5.0,North,13.8,-,N/A,,Haze,350,2013-03-16 22:53:00
7:53 PM,41.0,35.1,79,29.98,7.0,North,13.8,18.4,N/A,,Overcast,10,2013-03-16 23:53:00
8:53 PM,39.0,33.1,79,29.98,8.0,North,12.7,-,N/A,,Overcast,10,2013-03-17 00:53:00
9:53 PM,37.9,32.0,79,30.02,8.0,NNE,8.1,-,N/A,,Overcast,20,2013-03-17 01:53:00
10:53 PM,37.9,32.0,79,30.04,8.0,North,4.6,-,N/A,,Overcast,10,2013-03-17 02:53:00
11:53 PM,37.0,32.0,82,30.06,8.0,NNE,8.1,-,N/A,,Overcast,20,2013-03-17 03:53:00